Lexington, KY

7:50 PM EDT on October 21, 2017 (GMT -0400)
Blue Grass

Weather History for KLEX - February, 2013

Change the Weather History Date:

Monday, February 25, 2013

  Actual Average Record
Temperature  
Mean Temperature 37 °F 40 °F  
Max Temperature 49 °F 49 °F 74 °F (2000)
Min Temperature 25 °F 31 °F -4 °F (1900)
Degree Days  
Heating Degree Days 28 25  
Month to date heating degree days 749 713  
Since 1 July heating degree days 3428 3496  
Cooling Degree Days 0 0  
Month to date cooling degree days 0 0  
Year to date cooling degree days 0 0  
Moisture  
Dew Point 22 °F    
Average Humidity 59    
Maximum Humidity 81    
Minimum Humidity 36    
Precipitation  
Precipitation 0.00 in 0.12 in 1.57 in (1972)
Month to date precipitation 1.12 2.85  
Year to date precipitation 5.58 6.05  
Snow  
Snow 0.00 in 0.10 in 5.80 in (1993)
Month to date snowfall 2.6 4.3  
Since 1 July snowfall 8.5 11.0  
Snow Depth 0.00 in    
Sea Level Pressure  
Sea Level Pressure 30.04 in    
Wind  
Wind Speed 13 mph (ENE)    
Max Wind Speed 21 mph    
Max Gust Speed 28 mph    
Visibility 10 miles    
Events      
T = Trace of Precipitation, MM = Missing Value Source: NWS Daily Summary

Daily Weather History Graph

Daily Weather History Graph

Search for Another Location

Airport or City:

Trip Planner

Search our weather history database for the weather conditions in past years. The results will help you decide how hot, cold, wet, or windy it might be!

Date:

Astronomy

Feb. 25, 2013 Rise Set
Actual Time 7:15 AM EST 6:28 PM EST
Civil Twilight 6:48 AM EST 6:54 PM EST
Nautical Twilight 6:18 AM EST 7:25 PM EST
Astronomical Twilight 5:47 AM EST 7:55 PM EST
Moon 6:39 PM EST (2/25) 6:45 AM EST (2/25)
Length of Visible Light 12h 05m
Length of Day
11h 12m
Full, 100% of the Moon is Illuminated
Feb 25
Full
Feb 25
Full
Mar 4
Last Quarter
Mar 11
New
Mar 19
First Quarter

Hourly Weather History & Observations

Time (EST) Temp. Windchill Dew Point Humidity Pressure Visibility Wind Dir Wind Speed Gust Speed Precip Events Conditions
12:54 AM 28.9 °F 20.4 °F 23.0 °F 78% 30.12 in 10.0 mi NE 9.2 mph - N/A   Clear
1:54 AM 30.0 °F 21.1 °F 23.0 °F 75% 30.12 in 10.0 mi ENE 10.4 mph - N/A   Clear
2:54 AM 28.9 °F 18.6 °F 23.0 °F 78% 30.10 in 10.0 mi ENE 12.7 mph - N/A   Clear
3:54 AM 28.9 °F 21.1 °F 21.9 °F 75% 30.13 in 10.0 mi East 8.1 mph - N/A   Clear
4:54 AM 28.9 °F 18.6 °F 21.9 °F 75% 30.11 in 10.0 mi East 12.7 mph - N/A   Clear
5:54 AM 28.0 °F 19.3 °F 21.0 °F 75% 30.14 in 10.0 mi East 9.2 mph - N/A   Clear
6:54 AM 28.0 °F 19.3 °F 21.0 °F 75% 30.12 in 10.0 mi ENE 9.2 mph - N/A   Clear
7:54 AM 27.0 °F 18.7 °F 21.0 °F 78% 30.13 in 10.0 mi East 8.1 mph - N/A   Clear
8:54 AM 30.0 °F 20.5 °F 21.0 °F 69% 30.14 in 10.0 mi East 11.5 mph - N/A   Clear
9:54 AM 34.0 °F 24.2 °F 21.0 °F 59% 30.14 in 10.0 mi East 15.0 mph - N/A   Clear
10:54 AM 37.9 °F 29.6 °F 21.9 °F 53% 30.12 in 10.0 mi ENE 13.8 mph - N/A   Clear
11:54 AM 42.1 °F 34.5 °F 21.9 °F 45% 30.10 in 10.0 mi ENE 15.0 mph - N/A   Clear
12:54 PM 44.1 °F 36.8 °F 23.0 °F 43% 30.07 in 10.0 mi ENE 16.1 mph - N/A   Clear
1:54 PM 46.0 °F 39.6 °F 24.1 °F 42% 30.02 in 10.0 mi ENE 15.0 mph - N/A   Clear
2:54 PM 48.0 °F - 24.1 °F 39% 29.99 in 10.0 mi East 15.0 mph - N/A   Clear
3:54 PM 48.0 °F - 23.0 °F 37% 29.98 in 10.0 mi East 13.8 mph - N/A   Clear
4:54 PM 48.0 °F - 23.0 °F 37% 29.97 in 10.0 mi ENE 15.0 mph - N/A   Clear
5:54 PM 46.0 °F 39.0 °F 24.1 °F 42% 29.95 in 10.0 mi ENE 17.3 mph - N/A   Clear
6:54 PM 43.0 °F 35.4 °F 23.0 °F 45% 29.93 in 10.0 mi ENE 16.1 mph - N/A   Clear
7:54 PM 41.0 °F 33.5 °F 21.9 °F 47% 29.92 in 10.0 mi ENE 13.8 mph - N/A   Clear
8:54 PM 39.9 °F 32.1 °F 23.0 °F 51% 29.91 in 10.0 mi ENE 13.8 mph - N/A   Clear
9:54 PM 39.9 °F 31.8 °F 21.9 °F 49% 29.92 in 10.0 mi East 15.0 mph - N/A   Overcast
10:54 PM 39.9 °F 31.8 °F 21.9 °F 49% 29.87 in 10.0 mi East 15.0 mph 24.2 mph N/A   Overcast
11:54 PM 39.9 °F 31.4 °F 23.0 °F 51% 29.84 in 10.0 mi East 16.1 mph 21.9 mph N/A   Overcast